Location: Newark
(25.6108°S, 54.5803°W)
Time: 02:52:29
(UTC+00:00)

SR - Pass Details

Date: 04 November 2020
Orbit: 579 x 876 km, 66.7° (Epoch: 30 November)

Event Time Altitude Azimuth Distance (km) Brightness Sun altitude
Rises 01:22:24 0° 197° (SSW) 3,114 ? -39.7°
Reaches altitude 10° 01:24:55 10° 191° (S) 2,139 ? -40.0°
Enters shadow 01:25:12 12° 190° (S) 2,031 ? -40.1°
